Temperature
15 15 15 14 14 14 14 14 15 16 16 17 17 15 14 13 12 11 11 11 10 10 10 10 11 11 11 11 11 11 11 11 11 11 11 10 10 9 8 7 6 4 3 1
13 14 13 13 13 14 14 14 14 15 15 16 14 13 13 12 12 11 11 10 10 10 10 10 9 9 10 10 10 10 10 10 10 10 10 9 9 8 7 7 5 4 2 0
13 13 11 12 14 14 14 14 14 14 15 14 13 12 12 11 11 10 10 9 9 9 9 8 8 8 8 9 9 9 9 9 9 9 9 8 8 7 7 6 4 3 2 -0
11 11 10 15 14 13 13 14 14 14 13 12 11 11 11 11 10 10 9 9 8 8 8 7 7 7 7 8 8 8 8 8 8 8 8 7 7 7 6 5 4 2 1 -0
10 10 12 14 13 12 12 13 13 12 12 11 10 10 12 11 9 8 8 8 7 7 6 6 6 6 6 7 7 7 7 7 7 7 6 6 6 6 5 4 3 2 0 -1
9 8 10 15 12 10 11 12 12 11 11 10 10 10 11 9 8 7 7 7 6 6 6 6 6 6 6 5 5 5 5 5 5 5 5 5 5 5 4 3 2 1 -1 -2
9 9 11 13 10 10 11 13 11 10 10 9 9 9 8 7 7 7 6 6 6 5 6 6 5 5 5 5 4 4 4 4 5 5 4 4 4 4 3 2 1 -0 -1 -2
9 9 10 12 9 12 13 11 10 10 9 8 8 7 7 6 6 5 5 5 5 5 5 5 5 4 4 3 3 3 3 3 4 3 3 3 3 3 2 1 -0 -1 -3 -4
10 11 13 10 11 11 9 9 9 8 8 7 6 6 6 5 5 5 5 4 4 4 4 4 4 3 2 2 2 2 2 2 2 2 3 2 2 2 1 0 -1 -2 -3 -4
10 11 11 11 10 9 9 8 8 7 6 6 5 5 4 4 4 4 4 4 4 3 3 3 3 3 2 2 1 1 1 1 1 1 1 1 1 1 0 -0 -1 -2 -4 -5
9 10 10 10 9 8 7 7 6 6 5 5 4 4 4 4 4 3 3 3 3 2 2 2 2 1 1 1 0 -0 -0 -0 -0 -0 -0 -0 0 0 -0 -1 -2 -3 -4 -5
9 10 10 9 8 7 6 5 5 4 4 4 4 3 3 3 3 3 3 3 2 2 1 1 1 0 0 -0 -1 -1 -1 -1 -1 -1 -1 -1 -1 -1 -0 -1 -2 -3 -4 -5
8 8 7 6 6 5 5 4 4 3 3 3 3 3 3 2 2 2 2 2 1 1 1 0 -0 -0 -0 -1 -1 -1 -2 -2 -2 -2 -2 -2 -2 -2 -2 -2 -2 -3 -4 -5
6 5 5 5 4 4 3 3 3 3 3 3 3 2 2 2 2 2 2 1 1 0 -0 -1 -1 -1 -1 -2 -2 -2 -2 -2 -2 -2 -2 -2 -2 -2 -3 -3 -4 -4 -4 -5
4 4 4 3 3 3 3 2 2 2 2 2 2 2 2 1 1 1 1 0 -0 -1 -1 -1 -1 -1 -1 -2 -2 -2 -2 -2 -2 -2 -2 -2 -2 -3 -3 -3 -4 -4 -5 -5
3 3 3 2 2 2 2 2 2 2 2 2 1 1 1 1 0 0 -0 -1 -1 -2 -1 -1 -1 -1 -2 -2 -3 -3 -3 -3 -3 -3 -3 -3 -3 -3 -4 -4 -5 -5 -5 -6
2 2 2 2 2 2 1 1 1 1 1 1 0 0 0 -0 -1 -1 -1 -2 -2 -2 -1 -2 -2 -2 -2 -2 -3 -3 -3 -3 -3 -3 -3 -4 -4 -4 -4 -5 -5 -5 -6 -6
2 2 1 1 1 1 1 1 1 1 0 0 -0 -1 -1 -1 -2 -2 -2 -3 -3 -2 -2 -2 -3 -3 -2 -3 -3 -3 -4 -4 -4 -4 -4 -4 -4 -4 -5 -5 -5 -5 -6 -6
2 2 1 1 1 1 1 0 0 0 -0 -1 -1 -1 -2 -2 -2 -3 -3 -3 -3 -3 -2 -2 -3 -3 -3 -3 -3 -4 -4 -4 -4 -4 -4 -4 -5 -5 -5 -5 -5 -6 -6 -7
2 2 1 1 1 1 0 -0 -0 -1 -1 -1 -2 -2 -2 -3 -3 -3 -4 -4 -3 -4 -4 -4 -4 -4 -3 -3 -4 -4 -4 -4 -4 -4 -4 -4 -5 -5 -5 -5 -6 -6 -6 -7
2 1 1 1 0 -0 -1 -1 -1 -2 -2 -2 -2 -2 -3 -3 -3 -4 -5 -5 -4 -4 -4 -4 -4 -4 -4 -4 -4 -4 -4 -4 -4 -4 -4 -5 -5 -5 -5 -5 -6 -6 -6 -7
1 1 0 -0 -1 -1 -1 -1 -1 -1 -2 -2 -2 -2 -3 -4 -4 -5 -5 -5 -5 -5 -5 -5 -5 -4 -4 -4 -4 -4 -4 -4 -4 -4 -5 -5 -5 -5 -5 -6 -6 -6 -6 -7
1 0 -0 -1 -1 -1 -1 -1 -1 -1 -2 -2 -2 -3 -4 -5 -5 -6 -6 -5 -5 -5 -6 -5 -5 -4 -4 -4 -4 -4 -4 -4 -4 -5 -5 -5 -5 -5 -6 -6 -6 -6 -7 -7
0 -0 -1 -1 -1 -1 -1 -1 -1 -2 -2 -2 -3 -4 -5 -5 -6 -6 -6 -6 -6 -6 -6 -5 -4 -4 -4 -4 -4 -4 -4 -4 -4 -5 -5 -5 -6 -6 -6 -6 -6 -7 -7 -7
-0 -1 -1 -1 -2 -2 -2 -2 -2 -3 -3 -4 -4 -5 -5 -6 -6 -6 -6 -6 -6 -6 -5 -5 -4 -4 -4 -4 -4 -4 -4 -4 -5 -5 -6 -6 -6 -6 -6 -7 -7 -7 -7 -7
-1 -1 -2 -2 -2 -2 -2 -3 -3 -4 -4 -5 -5 -5 -5 -6 -6 -6 -6 -6 -6 -6 -5 -5 -4 -4 -4 -4 -4 -4 -4 -5 -5 -5 -6 -6 -6 -6 -7 -7 -7 -7 -7 -7
-2 -2 -2 -2 -2 -2 -3 -3 -4 -4 -5 -6 -6 -6 -6 -6 -6 -7 -7 -6 -6 -6 -6 -5 -4 -4 -4 -4 -4 -4 -5 -5 -5 -6 -6 -6 -6 -7 -7 -7 -7 -7 -7 -7
Wind_Speed
18 19 17 19 22 21 22 23 25 30 30 30 23 15 11 8 9 11 13 16 17 18 18 18 18 16 14 12 10 8 9 11 13 13 13 14 15 15 16 17 18 18 19 20
16 17 19 24 27 28 27 26 27 29 28 17 7 8 10 11 11 12 15 18 19 20 20 19 19 17 15 14 11 9 10 12 11 11 12 13 14 14 15 16 17 18 19 19
15 12 12 16 17 18 14 15 16 18 13 8 10 12 15 15 13 13 17 20 20 20 19 19 18 17 16 16 14 12 11 12 11 11 12 13 13 14 16 16 17 18 19 20
9 8 11 9 2 6 11 15 15 15 11 10 12 15 16 14 12 16 20 21 21 19 19 18 17 16 15 15 14 13 13 12 11 10 12 13 13 15 15 15 15 16 18 20
5 8 13 12 8 4 6 9 5 2 6 12 15 17 15 11 13 18 20 20 18 17 17 17 17 16 16 16 15 14 14 13 12 10 12 13 14 15 14 14 15 16 16 19
6 6 8 7 2 0 3 7 2 4 13 18 19 19 17 17 19 20 19 17 15 14 15 16 16 15 15 16 16 15 15 15 14 13 13 14 14 14 13 13 14 14 16 17
10 10 11 8 0 2 5 6 5 13 17 19 18 18 20 21 19 18 17 15 14 14 15 16 16 15 16 17 17 16 16 16 15 14 14 14 13 12 12 12 13 14 15 15
7 9 10 3 4 5 9 11 14 18 18 19 21 21 20 19 17 15 14 14 14 14 15 16 16 16 17 18 17 17 16 17 16 15 13 11 12 12 11 11 13 13 14 14
9 11 9 3 8 11 12 17 19 18 19 20 20 20 18 16 14 13 13 13 14 15 17 17 17 17 18 19 18 17 17 17 16 15 13 12 11 11 10 10 11 11 11 12
14 17 19 19 19 19 17 18 20 19 19 18 18 16 14 12 12 12 13 14 15 16 18 18 18 18 18 18 17 17 17 17 15 15 14 12 10 9 10 10 11 11 11 12
21 22 22 17 14 16 19 19 20 19 17 15 13 12 11 11 12 13 14 15 15 16 18 20 19 19 18 18 17 17 17 16 15 13 13 12 11 10 11 12 12 12 11 11
20 20 20 23 21 21 21 20 18 16 14 11 9 10 11 12 13 14 15 16 17 18 19 20 20 20 19 17 16 16 15 14 13 12 11 11 11 11 13 16 18 20 20 16
24 23 22 24 21 19 18 16 13 11 11 10 9 10 12 13 14 16 17 18 19 20 20 20 20 20 19 17 16 15 15 15 12 12 11 11 10 11 11 11 15 20 21 22
18 19 21 20 18 15 13 11 9 9 9 9 10 11 12 14 16 18 19 19 20 20 20 20 20 20 19 17 15 16 15 15 13 12 11 11 11 10 10 10 10 9 12 19
14 14 16 16 13 11 9 8 8 9 10 11 12 13 15 17 18 19 20 19 20 20 20 20 20 20 18 16 16 16 14 12 12 12 11 11 11 10 10 10 10 9 8 9
15 13 11 9 8 8 8 7 8 11 12 14 15 17 17 18 19 20 20 19 20 21 21 20 20 20 18 17 16 14 13 16 16 13 12 11 10 10 10 9 9 9 8 8
8 8 7 7 7 8 8 9 11 13 15 17 19 19 19 20 21 21 21 20 19 20 20 19 19 18 17 16 16 13 13 14 17 14 11 11 10 10 10 9 9 8 8 9
3 4 5 5 7 10 12 13 14 15 16 18 19 20 20 21 22 22 21 21 20 20 20 18 17 17 17 17 14 13 12 12 12 12 11 11 11 10 9 9 9 10 8 8
2 3 5 7 9 11 13 15 16 17 17 18 19 21 21 20 20 21 21 20 20 20 17 15 22 21 18 18 17 13 13 13 13 12 11 13 12 10 9 8 8 8 8 7
5 6 8 11 12 12 15 16 18 18 18 18 19 20 21 20 19 20 20 19 16 15 16 19 20 17 16 16 18 13 13 14 14 13 11 10 10 9 9 8 8 8 8 8
10 10 11 13 15 16 16 18 18 19 19 18 18 19 20 20 19 18 18 18 16 16 18 22 17 15 15 16 19 14 13 13 13 12 11 10 9 9 8 8 7 7 7 7
12 13 15 16 18 19 17 16 17 18 18 18 18 17 18 19 19 17 16 15 17 19 17 15 15 18 21 23 14 13 13 13 12 11 10 9 9 8 7 7 7 6 7 7
14 15 17 18 19 19 19 17 17 16 17 18 18 19 19 18 16 16 17 15 15 21 19 16 20 27 29 18 13 13 13 13 12 11 10 8 8 7 6 6 6 6 6 6
16 16 16 16 16 17 18 17 15 14 15 16 16 15 16 16 15 14 15 20 23 25 18 20 27 28 25 13 12 12 12 11 10 9 8 7 6 6 5 5 5 5 6 7
14 14 14 14 15 14 15 15 14 14 15 14 16 16 14 13 15 16 17 18 22 23 17 20 25 24 17 12 11 11 11 10 10 9 7 6 5 5 4 4 4 5 5 5
14 14 14 13 13 14 13 12 12 13 14 15 15 14 14 13 15 15 15 17 20 21 18 15 15 16 12 11 11 11 10 10 9 8 6 5 5 4 3 4 5 4 5 5
13 13 12 12 12 11 11 11 12 13 13 14 16 16 15 15 15 15 17 16 15 15 15 14 13 12 11 11 11 10 9 8 7 6 5 4 3 2 3 4 4 4 4 5
Wind_Direction
264 276 280 274 272 263 254 258 268 276 283 291 312 332 337 340 340 342 346 346 343 338 334 332 331 329 326 317 308 288 270 261 259 259 255 253 249 245 241 237 235 232 230 227
271 272 275 275 269 265 263 262 263 271 279 300 347 348 341 333 328 328 334 335 333 329 327 325 324 323 319 315 309 292 274 268 267 264 259 254 251 247 242 238 235 232 230 228
283 297 294 272 261 255 246 246 255 269 292 351 341 341 333 324 316 321 326 327 324 322 320 318 318 316 313 311 308 297 284 279 275 269 264 259 254 249 245 241 236 233 230 228
284 290 252 260 283 263 262 265 266 272 294 321 330 323 313 310 312 320 323 321 319 318 316 314 313 312 311 309 305 300 294 288 280 270 266 265 259 253 248 243 237 234 231 229
252 264 275 280 282 250 252 276 275 293 334 331 329 316 311 328 320 316 316 315 313 313 311 310 310 314 313 308 306 303 299 297 290 275 270 268 263 258 252 245 240 235 233 230
227 246 266 285 111 216 267 275 142 334 329 329 328 318 318 328 319 314 314 314 315 314 312 311 315 318 311 307 307 306 305 303 298 290 279 272 269 265 257 247 243 239 236 232
233 244 266 278 204 213 255 321 345 321 321 319 314 307 309 313 312 312 313 314 318 318 316 315 318 317 310 308 308 310 308 303 298 293 286 280 276 268 259 249 245 241 239 234
222 229 252 204 175 232 302 323 312 313 314 313 310 308 309 311 313 314 314 317 321 319 315 315 317 315 310 308 310 310 306 302 299 297 293 283 275 268 257 248 245 243 240 239
224 239 271 233 255 293 309 305 309 311 311 310 307 307 310 310 311 312 314 315 317 316 313 313 315 316 309 308 311 309 305 302 301 299 295 286 277 269 258 247 243 242 238 237
263 264 273 280 286 291 299 305 309 309 308 306 304 304 306 308 309 311 312 315 317 315 312 312 315 313 308 308 309 307 304 304 303 301 298 293 279 266 257 248 242 239 237 237
265 277 287 284 287 298 306 306 304 303 304 303 301 299 301 303 306 309 310 312 314 311 309 309 311 310 309 309 309 306 304 303 302 299 297 296 285 268 259 251 245 240 241 239
270 284 292 297 304 307 303 302 302 302 302 300 294 295 300 302 304 307 309 311 311 310 309 309 310 309 309 309 308 305 304 303 302 301 299 295 292 284 260 252 256 249 245 243
273 287 293 297 302 303 300 300 299 296 292 293 296 298 300 302 305 306 307 309 311 311 309 308 308 307 308 309 307 303 300 299 299 296 295 295 292 288 288 275 255 252 248 244
282 291 293 299 303 306 304 300 295 291 288 290 296 301 302 304 305 305 306 308 309 308 306 306 307 306 309 310 307 301 299 296 294 293 293 291 288 283 279 280 280 267 250 244
290 292 294 301 302 304 305 302 302 302 306 308 308 306 305 305 304 305 306 307 307 305 305 307 307 307 311 310 305 300 298 296 296 295 292 289 285 280 274 269 267 267 261 247
303 300 299 301 308 317 321 316 310 310 311 310 309 308 305 302 301 302 303 306 308 307 306 306 304 305 308 306 302 299 296 294 297 296 293 291 286 279 273 267 262 257 253 245
302 307 314 316 320 322 321 314 308 307 309 307 307 307 305 303 302 303 306 309 306 303 301 300 300 303 304 302 300 299 297 297 297 295 291 289 286 280 273 265 257 254 250 241
290 296 302 308 312 314 313 311 308 306 305 304 305 305 304 305 305 306 306 307 305 303 301 301 303 306 303 301 300 297 295 294 293 291 288 286 284 279 271 260 253 252 250 240
298 299 305 304 302 301 302 302 303 303 302 302 303 304 304 302 301 302 304 305 304 303 303 306 308 308 303 300 300 296 295 293 291 288 285 283 282 275 267 257 252 246 239 231
282 288 296 300 301 298 298 301 302 302 303 304 303 303 303 304 305 304 303 299 294 294 299 304 306 303 301 301 301 297 294 292 291 289 285 280 278 274 264 256 249 242 233 225
283 289 295 300 303 303 301 301 301 301 303 303 301 301 301 303 303 303 301 301 301 303 306 306 306 302 302 303 303 298 295 294 292 290 287 283 278 270 261 251 243 234 226 219
282 289 295 301 303 302 302 301 298 297 299 300 300 300 301 303 304 302 295 295 300 305 308 305 303 301 306 307 302 298 296 294 294 292 289 284 278 269 258 248 240 229 219 212
285 289 294 298 300 300 300 296 293 294 295 298 300 302 302 303 304 303 303 304 306 306 308 302 301 304 307 308 301 297 296 295 295 293 289 285 279 269 259 248 234 220 211 204
285 288 290 292 295 294 293 292 290 291 292 294 294 293 296 300 300 299 298 302 307 306 305 300 303 306 310 306 300 298 297 296 295 294 291 286 277 266 256 242 225 211 203 197
280 282 285 288 290 290 289 291 291 291 293 297 299 301 299 298 298 302 303 304 306 307 305 304 305 307 308 300 299 298 298 295 294 294 289 283 272 261 249 228 212 201 193 189
279 283 286 283 282 284 287 289 291 295 300 302 304 306 306 305 303 303 304 305 305 305 306 304 304 305 304 303 303 302 300 299 298 294 288 281 270 256 238 215 200 192 185 181
278 280 281 281 281 279 281 284 288 294 298 301 304 306 307 307 306 307 307 307 308 307 306 305 304 304 305 305 304 303 303 302 298 293 289 279 263 241 213 194 186 177 171 168
Height
1521 1519 1519 1519 1516 1513 1513 1506 1500 1485 1480 1472 1474 1478 1479 1478 1476 1473 1470 1466 1463 1459 1455 1450 1446 1441 1436 1432 1428 1423 1419 1415 1411 1407 1403 1400 1396 1392 1389 1385 1382 1380 1378 1376
1522 1518 1517 1514 1506 1502 1499 1495 1490 1484 1479 1476 1480 1480 1478 1476 1474 1471 1467 1464 1460 1456 1451 1446 1441 1436 1431 1426 1422 1417 1413 1408 1404 1400 1396 1392 1387 1383 1379 1376 1373 1370 1367 1366
1516 1514 1517 1505 1490 1489 1488 1485 1484 1480 1476 1480 1480 1479 1477 1474 1471 1468 1465 1461 1456 1452 1447 1441 1436 1431 1425 1420 1415 1410 1406 1401 1396 1392 1387 1383 1378 1374 1370 1366 1363 1360 1357 1356
1519 1518 1515 1486 1484 1485 1483 1480 1478 1477 1479 1480 1480 1478 1475 1471 1468 1464 1461 1456 1451 1446 1441 1435 1430 1425 1419 1414 1408 1403 1398 1393 1388 1383 1378 1374 1369 1365 1361 1357 1353 1350 1347 1346
1521 1513 1497 1485 1482 1483 1482 1477 1476 1477 1478 1478 1475 1471 1467 1466 1464 1461 1456 1451 1446 1440 1435 1429 1424 1419 1413 1407 1401 1395 1390 1385 1380 1374 1369 1365 1361 1356 1352 1347 1343 1340 1338 1337
1518 1518 1501 1478 1483 1483 1483 1476 1475 1476 1475 1473 1470 1465 1461 1462 1459 1454 1450 1445 1439 1434 1429 1423 1418 1412 1406 1400 1394 1388 1383 1377 1372 1367 1361 1356 1352 1347 1343 1339 1335 1332 1329 1328
1512 1508 1488 1478 1482 1483 1481 1472 1475 1473 1472 1470 1468 1465 1459 1456 1452 1447 1443 1438 1433 1428 1423 1417 1411 1405 1399 1393 1387 1381 1375 1369 1364 1359 1354 1349 1344 1339 1335 1330 1327 1324 1321 1319
1504 1501 1489 1476 1479 1477 1472 1472 1472 1470 1468 1465 1462 1458 1453 1449 1445 1440 1436 1432 1427 1422 1417 1411 1405 1399 1392 1386 1380 1373 1367 1361 1356 1351 1346 1341 1336 1331 1327 1323 1319 1316 1313 1312
1489 1482 1474 1475 1473 1472 1472 1470 1467 1465 1463 1460 1455 1451 1448 1443 1439 1435 1431 1426 1421 1416 1410 1404 1399 1393 1385 1378 1372 1365 1359 1353 1348 1343 1338 1333 1328 1323 1319 1315 1311 1308 1306 1304
1482 1472 1472 1472 1471 1470 1469 1466 1463 1460 1457 1454 1449 1445 1442 1438 1434 1430 1426 1421 1415 1409 1402 1396 1391 1385 1378 1371 1364 1357 1351 1346 1340 1335 1330 1326 1321 1316 1312 1308 1304 1301 1299 1297
1474 1470 1468 1466 1467 1466 1463 1461 1458 1454 1451 1447 1443 1440 1437 1433 1429 1425 1420 1414 1409 1402 1395 1388 1382 1376 1370 1363 1357 1350 1344 1339 1333 1328 1323 1318 1314 1309 1305 1301 1298 1295 1293 1292
1466 1465 1464 1461 1463 1461 1457 1454 1451 1448 1444 1441 1439 1435 1432 1428 1424 1419 1414 1408 1402 1395 1388 1381 1374 1368 1362 1356 1350 1343 1337 1332 1327 1322 1316 1311 1306 1301 1297 1294 1290 1287 1285 1285
1465 1463 1461 1457 1456 1454 1451 1447 1445 1442 1439 1437 1434 1431 1427 1423 1418 1413 1407 1401 1394 1387 1380 1373 1366 1360 1355 1349 1343 1337 1331 1325 1320 1315 1310 1305 1300 1295 1290 1286 1283 1280 1278 1277
1463 1460 1455 1453 1450 1448 1445 1442 1440 1437 1435 1432 1430 1426 1422 1417 1412 1406 1400 1393 1386 1379 1372 1366 1359 1353 1347 1341 1335 1330 1324 1319 1314 1309 1304 1299 1294 1289 1284 1280 1276 1273 1272 1271
1458 1456 1452 1448 1445 1442 1440 1438 1436 1433 1431 1428 1425 1420 1416 1410 1404 1398 1391 1385 1378 1371 1364 1358 1352 1345 1340 1334 1328 1323 1317 1312 1307 1302 1297 1292 1287 1282 1278 1273 1270 1267 1266 1265
1452 1449 1446 1444 1442 1439 1437 1435 1432 1430 1427 1423 1418 1414 1409 1402 1395 1389 1383 1377 1370 1363 1356 1350 1343 1337 1332 1327 1321 1315 1310 1305 1301 1295 1290 1285 1280 1275 1271 1267 1264 1262 1260 1260
1447 1445 1443 1441 1440 1437 1435 1433 1429 1426 1421 1417 1411 1406 1400 1393 1386 1380 1375 1369 1362 1355 1348 1342 1335 1330 1325 1320 1314 1308 1303 1298 1293 1288 1283 1278 1273 1269 1265 1261 1259 1257 1255 1255
1445 1443 1442 1440 1438 1435 1432 1428 1424 1420 1415 1409 1403 1397 1391 1385 1378 1371 1365 1358 1352 1345 1340 1335 1329 1322 1317 1312 1307 1301 1296 1291 1286 1281 1276 1271 1266 1262 1258 1255 1253 1251 1250 1250
1442 1440 1439 1436 1434 1430 1426 1422 1417 1413 1407 1402 1395 1389 1383 1376 1369 1362 1356 1349 1342 1336 1330 1326 1320 1314 1309 1304 1300 1294 1289 1283 1278 1273 1268 1264 1260 1256 1252 1249 1247 1245 1245 1244
1439 1437 1434 1431 1428 1424 1419 1414 1409 1404 1399 1394 1387 1380 1373 1367 1361 1354 1347 1341 1335 1329 1323 1317 1311 1306 1301 1296 1292 1287 1281 1276 1271 1266 1261 1257 1253 1249 1246 1243 1241 1240 1239 1239
1434 1431 1428 1424 1420 1416 1412 1407 1401 1396 1390 1385 1379 1372 1365 1358 1352 1346 1338 1331 1326 1321 1315 1309 1304 1299 1294 1289 1284 1279 1274 1269 1263 1258 1254 1250 1246 1242 1240 1237 1236 1235 1235 1235
1428 1424 1421 1417 1412 1407 1403 1399 1393 1388 1382 1376 1370 1364 1357 1350 1344 1337 1331 1326 1318 1313 1308 1302 1297 1292 1287 1282 1277 1272 1266 1261 1256 1251 1247 1243 1239 1236 1234 1232 1231 1230 1231 1231
1421 1417 1413 1409 1404 1398 1393 1389 1385 1379 1373 1368 1362 1356 1350 1343 1337 1330 1322 1317 1312 1306 1301 1295 1290 1285 1280 1275 1269 1264 1259 1254 1249 1244 1240 1237 1233 1231 1229 1228 1227 1227 1227 1228
1412 1408 1404 1400 1395 1389 1383 1379 1376 1371 1365 1359 1353 1348 1342 1335 1328 1323 1317 1310 1304 1299 1293 1287 1283 1278 1273 1267 1262 1257 1252 1247 1243 1238 1234 1231 1228 1226 1225 1224 1223 1223 1224 1225
1403 1399 1394 1390 1385 1380 1375 1370 1366 1361 1356 1350 1345 1340 1335 1329 1323 1315 1309 1303 1297 1292 1286 1280 1276 1271 1266 1261 1256 1251 1246 1241 1237 1233 1229 1226 1224 1222 1221 1220 1220 1221 1222 1224
1393 1389 1385 1381 1377 1372 1367 1363 1358 1353 1348 1342 1336 1332 1327 1321 1315 1309 1303 1297 1291 1285 1280 1274 1270 1265 1260 1255 1250 1245 1240 1236 1231 1228 1225 1222 1220 1219 1218 1218 1218 1219 1221 1222
1382 1378 1375 1371 1367 1364 1360 1355 1350 1345 1341 1335 1329 1324 1319 1313 1308 1302 1296 1290 1285 1279 1274 1269 1264 1259 1255 1249 1244 1240 1235 1231 1227 1224 1221 1219 1217 1216 1216 1216 1217 1218 1220 1222